[[{"header":{"parameterUnit":"m.s-1","parameterCategory":1,"la1":30.2991,"la2":30.254,"lo1":-89.0895,"lo2":-89.0444,"dy":0.0017,"dx":0.0017,"nx":28,"ny":28,"refTime":"2023-03-30T21:00:00:Z","depth":0,"parameterNumber":2,"parameterNumberName":"U-component_of_WINDS"},"data":[0,0,0,0,0,0,0,0,0,0,0,0,0,0,0,0,0,0,0,0,0,0,0,0,0,0,0,0,0,0,0,0,0,0,0,0,0,0,0,0,0,0,0,0,0,0,0,0,0,0,0,0,0,0,0,0,0,0,-3.1948,-3.1949,0,-3.2022,-3.2023,-3.2024,-3.2027,-3.2026,-3.2025,-3.2024,-3.2102,-3.2105,-3.2108,0,0,0,0,0,0,0,0,0,0,0,0,0,-3.1813,-3.1816,-3.1948,-3.1949,-3.195,-3.2022,-3.2023,-3.2024,-3.2027,-3.2026,-3.2025,-3.2024,-3.2101,-3.2105,-3.2108,0,0,0,0,0,0,0,0,0,0,0,0,0,-3.1878,-3.1817,-3.1948,-3.196,-3.1962,-3.2022,-3.2023,-3.2024,-3.2027,-3.2026,-3.2024,-3.2023,-3.21,-3.2105,-3.2109,-3.2163,0,0,-3.2122,-3.2124,0,0,0,0,0,0,0,0,-3.1874,-3.1883,-3.1957,-3.1959,-3.1961,-3.2014,-3.2004,-3.2071,-3.2027,-3.2002,-3.2024,-3.2022,-3.2074,-3.2081,-3.2097,-3.2166,-3.217,-3.2123,-3.2125,-3.2127,-3.2128,0,0,0,0,0,0,0,-3.187,-3.188,-3.1978,-3.1958,-3.1961,-3.1963,-3.1971,-3.2017,-3.2045,-3.2004,-3.2005,-3.2013,-3.2075,-3.2093,-3.2099,-3.2171,-3.2122,-3.2126,-3.2129,-3.2131,-3.2288,-3.2289,0,0,0,0,0,0,-3.1863,-3.1876,-3.1975,-3.198,-3.1914,-3.1966,-3.1975,-3.1998,-3.2044,-3.205,-3.2014,-3.2013,-3.2086,-3.2094,-3.2102,-3.2168,-3.2127,-3.2131,-3.2134,-3.2286,-3.2288,-3.229,0,0,0,0,0,0,-3.186,-3.1871,-3.1972,-3.1928,-3.1941,-3.197,-3.1996,-3.2001,-3.2019,-3.2052,-3.2057,-3.2028,-3.2086,-3.2096,-3.2147,-3.2171,-3.2133,-3.2137,-3.2285,-3.2287,-3.2289,-3.23,0,0,0,0,0,0,-3.1856,-3.187,-3.189,-3.1928,-3.1943,-3.2015,-3.1998,-3.2003,-3.2026,-3.2025,-3.2066,-3.2071,-3.2085,-3.2141,-3.2152,-3.2176,-3.2141,-3.2283,-3.2286,-3.2288,-3.2298,-3.2302,-3.2306,0,0,0,0,0,-3.1851,-3.1891,-3.1891,-3.1903,-3.1969,-3.2017,-3.2025,-3.204,-3.2028,-3.2048,-3.207,-3.207,-3.2167,-3.2146,-3.2158,-3.2184,-3.2281,-3.2285,-3.2288,-3.2296,-3.2301,-3.2306,0,0,0,0,0,0,-3.1855,-3.1896,-3.1897,-3.195,-3.198,-3.2017,-3.2043,-3.2046,-3.208,-3.2078,-3.2096,-3.2105,-3.2156,-3.2176,-3.2152,-3.2239,-3.2223,-3.2229,-3.2224,-3.223,-3.2234,-3.2228,-3.2144,0,0,0,0,0,-3.1862,-3.1897,-3.1931,-3.1975,-3.1989,-3.2014,-3.2035,-3.2044,-3.2076,-3.2089,-3.2114,-3.2146,-3.2184,-3.2208,-3.2245,-3.2301,-3.231,-3.2325,-3.2329,-3.2333,-3.2338,-3.2369,-3.2376,-3.2301,-3.2301,-3.2301,0,0,-3.1877,-3.1904,-3.1925,-3.1976,-3.2,-3.2037,-3.2024,-3.2063,-3.2091,-3.2095,-3.2145,-3.2165,-3.2202,-3.2256,-3.2281,-3.2274,-3.236,-3.2337,-3.234,-3.2343,-3.2373,-3.238,-3.2387,-3.2304,-3.2303,-3.2303,0,0,-3.1923,-3.1947,-3.1985,-3.201,-3.2046,-3.2062,-3.2071,-3.2109,-3.2122,-3.2172,-3.2176,-3.221,-3.2274,-3.23,-3.2322,-3.2378,-3.238,-3.239,-3.2412,-3.2443,-3.2449,-3.2454,-3.2474,-3.2481,-3.2395,-3.2395,-3.2395,0,-3.1937,-3.1991,-3.2005,-3.2044,-3.2067,-3.2072,-3.2112,-3.2136,-3.2182,-3.2199,-3.219,-3.2271,-3.2296,-3.2356,-3.237,-3.2388,-3.2399,-3.2385,-3.2447,-3.2452,-3.2457,-3.2477,-3.2484,-3.2396,-3.2396,-3.2396,-3.2396,0,-3.2007,-3.2044,-3.2071,-3.2115,-3.2141,-3.2181,-3.2202,-3.2227,-3.2234,-3.2252,-3.2303,-3.2334,-3.2376,-3.2392,-3.2399,-3.2454,-3.2448,-3.2443,-3.2426,-3.2465,-3.2483,-3.2491,-3.2397,-3.2397,-3.2397,-3.2396,0,0,-3.2056,-3.2108,-3.2118,-3.2138,-3.2178,-3.2208,-3.2248,-3.2289,-3.231,-3.2343,-3.2377,-3.2432,-3.2428,-3.2452,-3.2463,-3.249,-3.2533,-3.2482,-3.2483,-3.249,-3.2595,-3.2598,-3.2606,-3.2535,-3.2536,-3.2537,-3.2591,0,-3.2106,-3.2176,-3.219,-3.2251,-3.2286,-3.2292,-3.2327,-3.2357,-3.2374,-3.2408,-3.2428,-3.2466,-3.2458,-3.2473,-3.25,-3.2522,-3.2554,-3.2518,-3.2567,-3.2569,-3.2557,-3.2616,-3.2619,-3.2668,-3.2599,-3.26,-3.2601,0,-3.2173,-3.2206,-3.227,-3.2306,-3.2322,-3.2352,-3.2391,-3.2423,-3.2457,-3.2468,-3.2496,-3.2504,-3.2547,-3.253,-3.259,-3.2565,-3.2586,-3.26,-3.2603,-3.2607,-3.2586,-3.2621,-3.2684,-3.2692,-3.2613,-3.2612,-3.2611,0,-3.2202,-3.2263,-3.2309,-3.2326,-3.237,-3.2391,-3.2411,-3.2444,-3.2467,-3.2502,-3.2518,-3.2558,-3.2579,-3.261,-3.2629,-3.2615,-3.2688,-3.2672,-3.2699,-3.2698,-3.2713,-3.2712,-3.278,-3.2728,-3.2728,-3.2728,-3.2728,0,-3.2256,-3.2295,-3.2322,-3.2351,-3.2395,-3.2412,-3.2456,-3.2475,-3.2504,-3.2537,-3.2546,-3.2577,-3.26,-3.2635,-3.2651,-3.2698,-3.2708,-3.2719,-3.2722,-3.2718,-3.2716,-3.2731,-3.2728,-3.273,-3.2729,-3.2729,-3.2729,0,-3.2295,-3.2316,-3.2366,-3.2403,-3.2413,-3.2444,-3.2477,-3.2505,-3.2523,-3.2565,-3.2576,-3.2605,-3.2646,-3.2668,-3.2721,-3.2731,-3.2784,-3.2786,-3.2772,-3.2773,-3.2798,-3.2796,-3.2878,-3.289,-3.2831,-3.2831,-3.2832,0,-3.2328,-3.2358,-3.2398,-3.242,-3.2439,-3.2475,-3.2499,-3.2518,-3.2543,-3.2584,-3.2608,-3.2649,-3.2684,-3.275,-3.2776,-3.2816,-3.2819,-3.2845,-3.2825,-3.2819,-3.2819,-3.2816,-3.282,-3.2848,-3.2849,-3.2849,-3.285,0,-3.2383,-3.2392,-3.2425,-3.2463,-3.2491,-3.2522,-3.2552,-3.2571,-3.2594,-3.2622,-3.2664,-3.2691,-3.2743,-3.2785,-3.2827,-3.2849,-3.2854,-3.2856,-3.2864,-3.2859,-3.285,-3.2855,-3.2781,-3.2854,-3.2853,-3.2853,-3.2853,-3.2853,-3.242,-3.2447,-3.2479,-3.2517,-3.2541,-3.257,-3.2598,-3.2619,-3.2654,-3.2698,-3.2707,-3.2751,-3.2786,-3.2843,-3.2865,-3.2901,-3.2896,-3.2908,-3.2911,-3.2914,-3.2914,-3.2845,-3.2909,-3.2909,-3.2909,-3.2909,-3.2909,0,-3.2476,-3.2497,-3.2531,-3.2573,-3.2602,-3.2604,-3.2638,-3.2663,-3.2701,-3.2732,-3.2765,-3.2814,-3.2854,-3.2884,-3.2925,-3.2948,-3.2951,-3.2958,-3.2956,-3.2961,-3.2917,-3.2905,-3.2955,-3.2955,-3.2955,-3.2955,-3.2955,-3.2955,-3.2508,-3.2553,-3.2566,-3.2624,-3.2645,-3.2687,-3.2706,-3.2733,-3.2758,-3.2811,-3.2844,-3.2863,-3.2894,-3.2937,-3.2975,-3.2983,-3.2997,-3.3004,-3.3012,-3.2969,-3.2965,-3.296,-3.2949,-3.3007,-3.3007,-3.3054,-3.3054,-3.3054]},{"header":{"parameterUnit":"m.s-1","parameterCategory":1,"la1":30.2991,"la2":30.254,"lo1":-89.0895,"lo2":-89.0444,"dy":0.0017,"dx":0.0017,"nx":28,"ny":28,"refTime":"2023-03-30T21:00:00:Z","depth":0,"parameterNumber":3,"parameterNumberName":"V-component_of_WINDS"},"data":[0,0,0,0,0,0,0,0,0,0,0,0,0,0,0,0,0,0,0,0,0,0,0,0,0,0,0,0,0,0,0,0,0,0,0,0,0,0,0,0,0,0,0,0,0,0,0,0,0,0,0,0,0,0,0,0,0,0,7.4109,7.411,0,7.4168,7.4168,7.4169,7.4116,7.4113,7.4111,7.4109,7.4167,7.417,7.4174,0,0,0,0,0,0,0,0,0,0,0,0,0,7.3948,7.3951,7.4109,7.411,7.411,7.4168,7.4168,7.4169,7.4116,7.4113,7.4111,7.4108,7.4166,7.417,7.4174,0,0,0,0,0,0,0,0,0,0,0,0,0,7.4013,7.3952,7.4109,7.4091,7.409,7.4167,7.4168,7.4169,7.4117,7.4113,7.411,7.4107,7.4164,7.417,7.4175,7.4273,0,0,7.4191,7.4193,0,0,0,0,0,0,0,0,7.401,7.4019,7.4093,7.4092,7.4091,7.4131,7.4133,7.4204,7.4117,7.4106,7.4109,7.4105,7.4157,7.4163,7.4181,7.4275,7.4278,7.4192,7.4195,7.4197,7.4199,0,0,0,0,0,0,0,7.4005,7.4016,7.4132,7.4094,7.4093,7.4079,7.4085,7.4146,7.4149,7.4107,7.4103,7.4111,7.4156,7.4176,7.4182,7.4279,7.4191,7.4196,7.4199,7.4202,7.4456,7.446,0,0,0,0,0,0,7.4003,7.4013,7.413,7.4134,7.4042,7.4084,7.4091,7.4121,7.4148,7.415,7.4114,7.4108,7.4169,7.4176,7.4184,7.4301,7.4197,7.4202,7.4205,7.4453,7.4457,7.4461,0,0,0,0,0,0,7.4,7.4014,7.4128,7.4072,7.4086,7.4091,7.4125,7.4124,7.4144,7.4154,7.4154,7.4134,7.4166,7.4177,7.4251,7.4302,7.4204,7.4209,7.4449,7.4454,7.4459,7.4536,0,0,0,0,0,0,7.3995,7.4013,7.4051,7.4074,7.4089,7.4195,7.4129,7.4128,7.4154,7.4147,7.4172,7.4173,7.4165,7.4244,7.4257,7.4308,7.4213,7.4444,7.4451,7.4457,7.4529,7.4543,7.4556,0,0,0,0,0,7.399,7.4069,7.4053,7.4068,7.4137,7.4198,7.4207,7.4196,7.4158,7.4196,7.4202,7.4173,7.4294,7.4252,7.4266,7.432,7.4441,7.4449,7.4457,7.4523,7.454,7.4555,0,0,0,0,0,0,7.4051,7.4072,7.4054,7.4144,7.417,7.4189,7.4237,7.4215,7.4251,7.4244,7.4228,7.4234,7.4313,7.4323,7.4276,7.4416,7.4361,7.4373,7.4407,7.4423,7.4437,7.4433,7.4218,0,0,0,0,0,7.4076,7.4125,7.414,7.4217,7.4231,7.4232,7.4258,7.4248,7.4274,7.4284,7.4295,7.4321,7.4365,7.4395,7.4435,7.4529,7.4534,7.4573,7.4587,7.4598,7.4608,7.4659,7.4677,7.4487,7.4487,7.4487,0,0,7.4126,7.4143,7.4175,7.423,7.4249,7.43,7.4241,7.4297,7.4335,7.4292,7.4364,7.4374,7.4401,7.4486,7.4524,7.4497,7.4661,7.4608,7.4616,7.4621,7.4669,7.4687,7.4703,7.4493,7.4492,7.4491,0,0,7.4244,7.4262,7.4329,7.4349,7.4379,7.4379,7.4395,7.4418,7.4423,7.4495,7.4464,7.4507,7.4584,7.4605,7.4625,7.4752,7.4726,7.4765,7.4835,7.4885,7.49,7.4913,7.4959,7.4976,7.4775,7.4775,7.4775,0,7.4303,7.4379,7.4366,7.4425,7.445,7.4414,7.4482,7.4502,7.4543,7.4561,7.453,7.4626,7.4641,7.4732,7.4763,7.478,7.4798,7.4763,7.4899,7.4912,7.4924,7.4968,7.4985,7.478,7.4779,7.4779,7.4778,0,7.445,7.4503,7.4553,7.4596,7.4626,7.4689,7.4685,7.4718,7.4704,7.4707,7.4781,7.4799,7.4843,7.4863,7.485,7.4952,7.4934,7.4902,7.4847,7.4948,7.4988,7.5005,7.4787,7.4785,7.4783,7.4782,0,0,7.4609,7.4644,7.4663,7.4682,7.4712,7.4752,7.4813,7.4857,7.4886,7.4915,7.4966,7.5031,7.5002,7.5025,7.5014,7.5058,7.5158,7.502,7.502,7.5046,7.5272,7.5297,7.5317,7.5141,7.5144,7.5146,7.527,0,7.4729,7.4837,7.4827,7.4929,7.4978,7.4945,7.4998,7.5022,7.5026,7.5067,7.5071,7.5119,7.5075,7.5089,7.5131,7.5137,7.5203,7.5128,7.5188,7.519,7.5184,7.5338,7.5365,7.5481,7.5286,7.5288,7.529,0,7.4884,7.4921,7.5028,7.5051,7.5071,7.5119,7.5159,7.5199,7.5226,7.5225,7.5252,7.5234,7.5294,7.5237,7.5321,7.527,7.5294,7.53,7.5304,7.5311,7.5248,7.535,7.5518,7.5536,7.5315,7.5313,7.5311,0,7.4992,7.5067,7.5141,7.5158,7.5186,7.5221,7.5234,7.5257,7.5285,7.5319,7.5337,7.5378,7.54,7.5432,7.5425,7.5384,7.5511,7.5453,7.5512,7.5513,7.5542,7.554,7.5717,7.5555,7.5555,7.5554,7.5554,0,7.5128,7.5195,7.519,7.5235,7.5309,7.5297,7.537,7.5379,7.54,7.5446,7.5419,7.5463,7.545,7.5493,7.5487,7.5558,7.5568,7.5569,7.5567,7.5573,7.5573,7.5589,7.5581,7.5559,7.5558,7.5557,7.5556,0,7.5261,7.526,7.5339,7.5359,7.5366,7.542,7.5437,7.548,7.5482,7.5541,7.5554,7.5557,7.5606,7.5602,7.5656,7.5653,7.5741,7.5728,7.5733,7.573,7.5791,7.5786,7.5986,7.6011,7.5831,7.5833,7.5834,0,7.5348,7.54,7.5426,7.5456,7.5472,7.552,7.5548,7.5537,7.5567,7.5601,7.564,7.5687,7.5724,7.5804,7.5811,7.5853,7.5842,7.5909,7.5848,7.5852,7.5845,7.5842,7.5848,7.5922,7.5924,7.5925,7.5927,0,7.5505,7.5502,7.5544,7.5587,7.5621,7.5654,7.5683,7.5709,7.57,7.5736,7.5787,7.5816,7.5872,7.592,7.596,7.5972,7.5949,7.5946,7.5962,7.5969,7.597,7.5971,7.5767,7.5941,7.594,7.5939,7.5938,7.5937,7.5619,7.5663,7.5689,7.5737,7.5758,7.5786,7.5828,7.5835,7.5878,7.5924,7.5914,7.5972,7.5996,7.6047,7.6064,7.6108,7.6084,7.6107,7.6113,7.612,7.6127,7.5962,7.6115,7.6115,7.6114,7.6114,7.6114,0,7.5774,7.579,7.5834,7.5877,7.5914,7.5889,7.592,7.5953,7.6005,7.603,7.6067,7.6126,7.6171,7.6182,7.6225,7.6259,7.6249,7.627,7.6269,7.6272,7.6146,7.6128,7.6278,7.6278,7.6278,7.6278,7.6278,7.6278,7.586,7.5934,7.5934,7.6018,7.6032,7.6089,7.6109,7.6135,7.6155,7.6222,7.6261,7.6267,7.6286,7.6331,7.6371,7.6373,7.6391,7.6417,7.6415,7.6297,7.6281,7.6265,7.6248,7.6421,7.6421,7.6537,7.6538,7.6539]}]]